GW2861 Weather Reports


time (UTC)temp
C
wind
direction
speed
KPH
gust
KPH
rain 1hr
cm
rain 24hr
cm
rain mn
cm
humidity
%
barometer
mb
20260505211018 28 198 6.4 16.1 0.00 0.00 0.00 28
20260505210037 28 209 4.8 14.5 0.00 0.00 0.00 29
20260505205057 28 204 6.4 16.1 0.00 0.00 0.00 29
20260505204018 28 193 4.8 12.9 0.00 0.00 0.00 29
20260505203018 28 192 4.8 12.9 0.00 0.00 0.00 29
20260505202017 29 198 3.2 12.9 0.00 0.00 0.00 29
20260505201017 29 198 4.8 24.1 0.00 0.00 0.00 30
20260505200038 29 196 3.2 9.7 0.00 0.00 0.00 29
20260505195017 28 207 6.4 17.7 0.00 0.00 0.00 29
20260505194017 28 196 3.2 11.3 0.00 0.00 0.00 29
20260505193017 28 193 6.4 20.9 0.00 0.00 0.00 30
20260505192018 28 211 4.8 9.7 0.00 0.00 0.00 31
20260505191018 28 193 4.8 9.7 0.00 0.00 0.00 31
20260505190017 28 211 6.4 17.7 0.00 0.00 0.00 31
20260505185016 28 197 3.2 12.9 0.00 0.00 0.00 32
20260505184038 28 211 3.2 11.3 0.00 0.00 0.00 33
20260505183017 27 201 4.8 14.5 0.00 0.00 0.00 34
20260505182017 27 200 6.4 16.1 0.00 0.00 0.00 35
20260505181036 27 205 6.4 19.3 0.00 0.00 0.00 33
20260505180038 27 203 3.2 9.7 0.00 0.00 0.00 35
20260505175018 27 206 3.2 8.0 0.00 0.00 0.00 36
20260505174017 27 208 4.8 11.3 0.00 0.00 0.00 37
20260505173038 27 200 4.8 9.7 0.00 0.00 0.00 38
20260505172038 27 194 3.2 11.3 0.00 0.00 0.00 39
20260505171017 27 195 3.2 8.0 0.00 0.00 0.00 39
20260505170017 26 208 3.2 11.3 0.00 0.00 0.00 39
20260505165018 26 206 4.8 14.5 0.00 0.00 0.00 39
20260505164018 26 203 4.8 11.3 0.00 0.00 0.00 40
20260505163037 26 201 3.2 9.7 0.00 0.00 0.00 40
20260505162016 26 184 3.2 6.4 0.00 0.00 0.00 40
20260505161018 26 203 4.8 11.3 0.00 0.00 0.00 41
20260505153018 25 208 1.6 6.4 0.00 0.00 0.00 42
20260505152017 25 205 1.6 8.0 0.00 0.00 0.00 42
20260505151017 25 205 1.6 8.0 0.00 0.00 0.00 44
20260505125037 20 192 3.2 6.4 0.00 0.00 0.00 55
20260505124017 20 200 1.6 6.4 0.00 0.00 0.00 57
20260505123019 19 186 3.2 8.0 0.00 0.00 0.00 59
20260505122018 18 199 1.6 4.8 0.00 0.00 0.00 62
20260505121017 16 197 1.6 8.0 0.00 0.00 0.00 70
20260505120017 15 193 0.0 1.6 0.00 0.00 0.00 80
20260505115018 14 0.0 0.0 0.00 0.00 0.00 81
20260505114017 14 0.0 0.0 0.00 0.00 0.00 81
20260505113017 14 218 1.6 3.2 0.00 0.00 0.00 81
20260505112036 14 193 0.0 1.6 0.00 0.00 0.00 77
20260505111017 15 198 0.0 3.2 0.00 0.00 0.00 75
20260505102017 15 190 0.0 6.4 0.00 0.00 0.00 68
20260505101037 14 203 1.6 8.0 0.00 0.00 0.00 69
20260505100018 14 188 1.6 4.8 0.00 0.00 0.00 70
20260505095017 11 255 0.0 4.8 0.00 0.00 0.00 81
20260505094017 11 195 0.0 1.6 0.00 0.00 0.00 83
20260505093036 10 0.0 0.0 0.00 0.00 0.00 83
20260505092038 11 193 0.0 1.6 0.00 0.00 0.00 83
20260505091017 11 0.0 0.0 0.00 0.00 0.00 82
20260505090037 11 0.0 0.0 0.00 0.00 0.00 81
20260505085016 11 197 0.0 1.6 0.00 0.00 0.00 80
20260505084017 11 0.0 0.0 0.00 0.00 0.00 79
20260505083017 11 0.0 0.0 0.00 0.00 0.00 78
20260505082016 12 0.0 0.0 0.00 0.00 0.00 76
20260505081018 12 204 0.0 1.6 0.00 0.00 0.00 74
20260505080017 13 205 0.0 3.2 0.00 0.00 0.00 73
20260505075037 13 196 0.0 1.6 0.00 0.00 0.00 71
20260505074016 13 193 0.0 1.6 0.00 0.00 0.00 69
20260505073018 14 199 0.0 1.6 0.00 0.00 0.00 68
20260505072017 15 194 0.0 3.2 0.00 0.00 0.00 66
20260505071017 15 196 1.6 3.2 0.00 0.00 0.00 66
20260505070016 15 199 1.6 3.2 0.00 0.00 0.00 66
20260505065018 15 185 1.6 4.8 0.00 0.00 0.00 65
20260505064017 14 204 1.6 3.2 0.00 0.00 0.00 66
20260505063016 14 192 0.0 3.2 0.00 0.00 0.00 68
20260505062016 13 191 0.0 1.6 0.00 0.00 0.00 71
20260505061017 12 197 0.0 3.2 0.00 0.00 0.00 72
20260505060037 12 0.0 0.0 0.00 0.00 0.00 73
20260505055017 12 0.0 0.0 0.00 0.00 0.00 73
20260505054018 12 0.0 0.0 0.00 0.00 0.00 72
20260505053017 12 0.0 0.0 0.00 0.00 0.00 72
20260505052018 12 0.0 0.0 0.00 0.00 0.00 71
20260505051016 12 0.0 0.0 0.00 0.00 0.00 70
20260505041017 13 198 0.0 0.0 0.00 0.00 0.00 64
20260505040038 13 0.0 0.0 0.00 0.00 0.00 64
20260505035016 14 0.0 0.0 0.00 0.00 0.00 63
20260505034018 14 0.0 0.0 0.00 0.00 0.00 62
20260505033017 14 0.0 0.0 0.00 0.00 0.00 60
20260505032016 15 194 0.0 1.6 0.00 0.00 0.00 60
20260505031018 15 0.0 0.0 0.00 0.00 0.00 59
20260505030017 15 193 0.0 1.6 0.00 0.00 0.00 59
20260505025037 15 196 0.0 0.0 0.00 0.00 0.00 57
20260505024016 15 200 0.0 3.2 0.00 0.00 0.00 58
20260505023018 14 195 0.0 1.6 0.00 0.00 0.00 59
20260505022017 14 0.0 0.0 0.00 0.00 0.00 58
20260505021017 14 193 0.0 1.6 0.00 0.00 0.00 57
20260505020016 15 0.0 0.0 0.00 0.00 0.00 56
20260505015018 15 0.0 0.0 0.00 0.00 0.00 55
20260505014017 15 0.0 0.0 0.00 0.00 0.00 54
20260505013036 15 0.0 0.0 0.00 0.00 0.00 52
20260505012016 16 0.0 0.0 0.00 0.00 0.00 51
20260505011038 16 0.0 0.0 0.00 0.00 0.00 49
20260505010037 16 0.0 0.0 0.00 0.00 0.00 48
20260505005017 17 0.0 0.0 0.00 0.00 0.00 47
20260505004018 17 0.0 0.0 0.00 0.00 0.00 45
20260505003017 17 0.0 0.0 0.00 0.00 0.00 44
20260505002016 18 0.0 0.0 0.00 0.00 0.00 43
20260505001016 18 198 0.0 0.0 0.00 0.00 0.00 41
20260505000118 19 200 0.0 3.2 0.00 0.00 0.00 39
20260504235018 20 200 1.6 6.4 0.00 0.00 0.00 39
20260504234016 20 201 0.0 4.8 0.00 0.00 0.00 37
20260504233016 20 197 1.6 4.8 0.00 0.00 0.00 36
20260504232017 20 199 1.6 4.8 0.00 0.00 0.00 36
20260504231017 21 198 1.6 6.4 0.00 0.00 0.00 35
20260504230016 21 202 1.6 4.8 0.00 0.00 0.00 35
20260504225016 21 200 3.2 9.7 0.00 0.00 0.00 35
20260504224017 21 205 3.2 11.3 0.00 0.00 0.00 34
20260504223037 22 200 3.2 14.5 0.00 0.00 0.00 34
20260504222016 22 190 1.6 8.0 0.00 0.00 0.00 34
20260504221016 22 204 1.6 3.2 0.00 0.00 0.00 33
20260504220017 22 199 1.6 6.4 0.00 0.00 0.00 33
20260504215017 22 201 3.2 8.0 0.00 0.00 0.00 33
20260504213017 22 191 1.6 8.0 0.00 0.00 0.00 32
20260504212017 22 204 4.8 16.1 0.00 0.00 0.00 32